Location: Unspecified
(0.0000°N, 0.0000°E)
Time: 17:38:42
(UTC+00:00)

Transit 4A - Pass Details

Date: 18 December 2018
Orbit: 862 x 983 km, 66.8° (Epoch: 17 June)

Event Time Altitude Azimuth Distance (km) Brightness Sun altitude
Rises 02:23:56 0° 234° (SW) 3,481 - -47.2°
Reaches altitude 10° 02:27:35 10° 256° (WSW) 2,520 - -46.5°
Maximum altitude 02:30:45 15° 290° (WNW) 2,169 - -45.8°
Drops below altitude 10° 02:33:54 10° 324° (NW) 2,494 - -45.2°
Sets 02:37:30 0° 346° (NNW) 3,422 - -44.5°
